DELTA 1 DEB, 7183

Orbit data source: Space-Track

DELTA 1 DEB, 7183 is space debris in SSO originally from a launch on Tue, 06 Nov 1973 UTC launched from the Air Force Western Test Range (AFWTR). Debris objects in space refer to the collection of defunct objects orbiting the Earth. Examples of debris include non-operational satellites, rocket bodies, and fragments generated from explosions, collisions, or faulty payload assembly.

Loading next visibility...
Identifier
7183, 1973-086EU
Orbit
SSO
Country
Flag of USUS
Related business
Manufacturer
Unknown
Mission
Spacecraft
Bus & Motor
Unknown
Mass
Unknown
Launch date (UTC)
1973-11-06 (52 years ago)
Launch vehicle
Unknown
Launch site
Air Force Western Test Range (AFWTR)
Object type
Payload
Rocket body
Debris
Shape & HBR
Unknown shape, 0.1 m
Radar Cross Section
Small (<0.1 m²)

Expand to show TLE details & history
Last TLE update: 7 hours ago

TLE from 7 hours ago
0 DELTA 1 DEB
1 07183U 73086EU  26123.59780321  .00000333  00000-0  18754-2 0  9998
2 07183 102.3859 152.4276 0120544 349.8225 135.1503 12.70124192419006
Epoch: 2026-05-03T14:20Z
TLE epoch observation values (Epoch: 2026-05-03T14:20:50.197Z)
Latitude
52.35758°
Longitude
-87.82148°
Altitude
1,456.579 km
Speed
7.108 km/s
True Right ascension
23h 15m 32s
True Declination
52° 12' 22"
Sunlit
Object was in daylight at epoch
Visualization orbit readout
Latitude
Unknown
Longitude
Unknown
Altitude
Unknown
Speed
Unknown
Apparent Right ascension
Unknown
Apparent Declination
Unknown
Sunlit
N/A
Visualization observer readout
Local Sidereal Time
04:39:37
Azimuth
Unknown
Elevation
Unknown
Doppler factor
Unknown
Orbital elements
Apogee altitude
1,472.5 km
Perigee altitude
1,285.485 km
Semi-major axis
7,757.13 km
Eccentricity
0.01205
Inclination
102.3859°
RAAN
152.4276°
Arg. of periapsis
349.8225°
True anomaly
136.11414°
Mean anomaly
135.1503°
Eccentric anomaly
135.63325°
Mean motion
3.17681 °/min
Orbital period
113.32 mins
BSTAR
0.0018754
Loading maneuver chart data...
Computing Atmospheric mass density...
Loading historical data...
Loading historical data...
Loading historical data...
Loading historical data...
Loading historical data...
Loading historical data...
Loading historical data...

Documentation

Showing up to 5 results
|